Погода в Шепетовке

Погода в Шепетовке : погода сейчас, прогноз погоды и архив. Всё, что Вы хотите узнать о погоде в Шепетовке!

Хотите узнать прогноз погоды в Шепетовке? Тогда Вам сюда: Погода в Шепетовке

Поиск расширенной информации на нашем сайте:

Другие новости

Новости СМИ2

Главная страница сайта

Новости сайта

02.10.2013

Напоминаем, что на нашем новом сайте вы можете получить высокодетализированные прогнозы погоды по пунктам России, СНГ и мира (включающие важные для авиации метеовеличины, такие как направление и скорость ветра, видимость, явления погоды, количество и форма облачности, нижняя и верхняя граница облачности), а также ознакомиться с разнообразными материалами по авиационной метеорологии и подборкой полезных ссылок на эту тему.

Сайт Метеоцентр.Азия посвящён разработке технологий оптимизации авиаметеорологического обслуживания, включая проектирование и перспективное создание нескольких автоматизированных авиаметеорологических систем:
- система выпуска высокодетальных прогностических карт явлений погоды для нижнего воздушного пространства по России и ближнему зарубежью;
- система верификации прогнозов TAF (выпускаемых синоптиками официальных АМСГ РФ и ближнего зарубежья) и AUTOTAF (выпускаемых сайтом Метеоцентр.Азия) - выявление ошибок, онлайн-сопоставление с фактической погодой METAR, автоматическое внесение коррективов в прогнозы при резком отклонении фактической погоды от прогноза, подсчёт оправдываемости прогнозов по элементам и в целом;
- система обработки, анализа и отображения авиаметеорологической информации для применения провайдерами метеорологической информации.


Погода в Шепетовке - сегодня

Время (UTC), дата Ветер
(°,м/с) 
Видим.   Явления Облачность Т
(°С)
Тd
(°С)
f(%) Тe
(°С)
Pmin
(гПа)
dP
(гПа)
Po
(мм)
O2
(г/м3)
Тmin Tmax R s Состояние
почвы
12 19.06.17 310 (СЗ) 20000 м    8/8 600 м 
[Cu med, cong]
+23.4 +12.3 50 +28  1016.5  -1.4  739  272           
15 19.06.17 290 (З) 20000 м    6/6 600 м 
[Cu med, cong]
+25.4 +12.8 46 +31  1015.1  -1.1  738  270           
18 19.06.17 тихо ()   20000 м    3/3 600 м 
[Cu hum]
+23.2 +14.3 57 +31  1015.3  738  271    +25.6       
21 19.06.17 260 (З) н/о    ясно 
+17.2 +15.5 90 +29  1016.3  0.3  738  276           
00 20.06.17 тихо ()   н/о    ясно 
+15.2 +14.3 94 +23  1016.2  -0.3  738  279           
03 20.06.17 240 (ЮЗ) 10 км    ясно 
+14.8 +13.9 94 +23  1016.3  738  279           
06 20.06.17 310 (СЗ) 20000 м    ясно 
+21.4 +14.9 66 +30  1015.7  0.2  738  273  +14.1         
09 20.06.17 270 (З) 20000 м    6/4 600 м средняя, верхняя 
[Cu med, cong|Ac trans|Ci fib]
+25 +13.9 50 +32  1014.6  -0.7  737  269           
12 20.06.17 270 (З) 20000 м    6/6 600 м 
[Cu med, cong]
+26.6 +12 40 +31  1012.7  -1.7  736  268           
15 20.06.17 280 (З) 20000 м    3/3 600 м 
[Cu hum]
+27.7 +12.2 38 +32  1010.6  -1.9  735  266           
18 20.06.17 тихо ()   20000 м    4/0 средняя, верхняя 
[Ac trans|Ci fib]
+23.2 +16.6 66 +35  1009.9  -1.1  734  269    +28       
21 20.06.17 240 (ЮЗ) н/о    ясно 
+17.8 +15.6 87 +29  1010  -0.5  734  274           
00 21.06.17 тихо ()   н/о    8/6 300 м средняя 
[Sc|Ac trans]
+17.9 +15 83 +27  1009.2  -0.8  733  274           
03 21.06.17 330 (СЗ) 10 км    6/4 600 м кучево-дожд., верхняя 
[Cb cap|Ci ing]
+16.4 +15.2 93 +28  1010.2  0.8  734  276           
06 21.06.17 300 (СЗ) 10 км    8/4 600 м средняя, верхняя 
[Sc|Ac trans|Cs]
+17.6 +14.5 82 +26  1011.3  1.2  734  275  +16.4         
09 21.06.17 330 (СЗ) 20000 м    8/4 600 м верхняя 
[Cu hum|Ci]
+20.5 +9.1 48 +21  1011.6  0.5  735  274           
12 21.06.17 300 (СЗ) 20000 м    6/4 600 м верхняя 
[Cu hum|Ci fib]
+23.2 +8 38 +23  1010.9  -0.4  734  271           
15 21.06.17 280 (З) 20000 м    3/3 600 м 
[Cu hum]
+22.8 +6.6 35 +23  1010.3  -0.6  734  272           
18 21.06.17 280 (З) 20000 м    ясно 
+19.6 +6.4 42 +21  1011.4  0.7  735  275    +23.8       
21 21.06.17 260 (З) н/о    ясно 
+13.4 +9.1 75 +15  1013.6  1.5  736  281           
00 22.06.17 тихо ()   н/о    ясно 
+10.6 +9.2 91 +11  1013.9  736  284           
03 22.06.17 тихо ()   10 км    ясно 
+9.5 +8.9 96 +10  1014.7  0.6  736  285           
06 22.06.17 230 (ЮЗ) 20000 м    8/0 верхняя 
[Ci fib]
+16.8 +10.1 65 +20  1014.6  0.8  737  278  +9.3         
09 22.06.17 270 (З) 20000 м    8/6 600 м верхняя 
[Cu med, cong|Ci fib]
+19.6 +6.6 43 +21  1014.4  737  276           
12 22.06.17 240 (ЮЗ) 20000 м    8/6 600 м верхняя 
[Cu med, cong|Ci fib]
+20.6 +9.2 48 +21  1014  -0.2  737  274           
Время (UTC), дата Ветер
(°,м/с) 
Видим.   Явления Облачность Т
(°С)
Тd
(°С)
f(%) Тe
(°С)
Pmin
(гПа)
dP
(гПа)
Po
(мм)
O2
(г/м3)
Тmin Tmax R s Состояние
почвы

Для получения пояснительной информации подведите курсор к названию столбца.

ПОГОДА в Шепетовке - архив

Всё, что Вы хотите узнать о погоде в Шепетовке - удобно и подробно!

Выберите нужную дату (начиная с 1 января 2015* года) и нажмите кнопку "Найти".
Будут отображены архивные сводки погоды по пункту Шепетовка, начиная с указанной даты.


Отображать данные в формате CSV (для использования в таблицах Excel)


Внимание! Наш архив погоды предназначен исключительно для личного некоммерческого использования в познавательных целях. Если Вам необходимы официальные справки о состоянии погоды (для производственных, юридических, коммерческих и т.п. целей), обращайтесь в органы Росгидромета.

*Примечание: данная дата относится к архиву по метеостанциям СССР (Россия, СНГ, Балтия).
Архив по метеостанциям Зарубежной Европы и Азии (кроме Китая) хранится 10 дней, по другим регионам земного шара (Китай, Африка, Америка, Австралия, Океания) - 1 день.

Шепетовка - район местоположения метеостанции


Название, широта, долгота, высота метеостанции:
Шепетовка 50.2°ш. 27°д. 278 м над ур. моря [Украина]

Дополнительная информация

В oтличие oт бoльшинства пoгoдных сайтoв мы публикуем пoдрoбную метеoинфoрмацию в детальнoм прoфессиoнальнoм фoрмате.

Характеристики температуры и влажнoсти вoздуха измеряются на высoте 2 м в тени вдали oт зданий и деревьев.
Скoрoсть ветра измеряется на высoте 10 м (на урoвне рoста челoвека скoрoсть ветра ниже в 1.5-2 раза). Если метеoстанция нахoдится в гoрoде или в лесу, тo скoрoсть ветра занижена на 2-4 м/с пo сравнению с oткрытым местoм. Скoрoсть ветра над акватoриями крупных рек и oзёр, а также на вершинах хoлмoв на 2-5 м/с выше, чем в oбычных услoвиях.
Атмoсфернoе давление в разных тoчках местнoсти мoжет значительнo oтличаться oт давления на метеoстанции, в зависимoсти oт услoвий рельефа (при пoдъёме на 10 м давление пoнижается примернo на 1 мм рт.ст.).